Regional Weather Roundup
Issued by NWS

Home | Current Version | Previous Version | Text Only | Print | Product List | Glossary Off
Versions: 1 2 3 4 5 6 7 8 9 10 11 12 13 14 15 16 17 18 19 20 21 22 23 24 25 26 27 28 29 30 31 32 33 34 35 36 37 38 39 40 41 42 43 44 45 46 47 48 49 50

692
ASUS43 KMPX 060501
RWRMN
WEATHER ROUNDUP FOR MINNESOTA
NATIONAL WEATHER SERVICE TWIN CITIES/CHANHASSEN MN
1100 PM CST MON DEC 05 2016


NOTE: "FAIR" INDICATES FEW OR NO CLOUDS BELOW 12,000 FEET WITH NO
SIGNIFICANT WEATHER AND/OR OBSTRUCTIONS TO VISIBILITY. N/A MEANS
CURRENT SKY AND/OR WEATHER CONDITIONS ARE NOT AVAILABLE.

MNZ060>063-068>070-060600-
   Twin Cities Metro

CITY           SKY/WX    TMP DP  RH WIND       PRES   REMARKS
TWIN CITIES    CLOUDY    39  33  79 S13       29.66S
ST PAUL        CLOUDY    38  34  85 S12       29.68R
CRYSTAL        CLOUDY    40  33  76 SW9       29.63S
BLAINE         CLOUDY    41  37  87 S14       29.63S
LAKEVILLE      CLOUDY    36  36 100 S9G16     29.67R
EDEN PRAIRIE   CLOUDY    40  33  76 W17G23    29.65R
SOUTH ST PAUL  CLOUDY    38  34  84 S8G18     29.67S
LAKE ELMO      CLOUDY    36  34  93 S13       29.68R
$$
MNZ001>005-007-008-013>017-022>024-027-028-060600-
   Northwest Minnesota

CITY           SKY/WX    TMP DP  RH WIND       PRES   REMARKS
BEMIDJI        CLOUDY    33  32  96 SE15G21   29.41S WCI  23
HALLOCK        LGT SNOW  30  28  93 NE18      29.49F VSB 1   WCI  18
ROSEAU         LGT SNOW  30  27  86 NE20G25   29.49F WCI  18
WARROAD        LGT SNOW  30  27  86 NE23G29   29.52F WCI  17
THIEF RVR FALL LGT SNOW  29  28  96 NE15      29.41F VSB 3/4 WCI  18
CROOKSTON      LGT SNOW  30  28  93 E14       29.39F WCI  20
FOSSTON        MIX PCPN  30  30 100 E7        29.38F WCI  23
DETROIT LAKES  CLOUDY    32  32 100 SW15      29.41S FOG     WCI  22
MOORHEAD       CLOUDY    30  30 100 SW18      29.41S FOG     WCI  18
PARK RAPIDS    CLOUDY    35  31  85 S16       29.41S WCI  25
$$
MNZ006-009>011-018-025>026-060600-
   North Central Minnesota

CITY           SKY/WX    TMP DP  RH WIND       PRES   REMARKS
BAUDETTE       LGT SNOW  29  27  92 E17       29.51F VSB 3/4 WCI  17
FLAG ISLAND    FLURRIES  30  27  86 E13G20    29.55F WCI  20
INTL FALLS     LGT SNOW  30  27  88 E14       29.56F VSB 3/4 WCI  19
WASKISH        CLOUDY    30  30 100 E15G21    29.45F FOG     WCI  19
BIG FORK       MIX PCPN  34  32  93 SE9G18    29.50F WCI  26
LONGVILLE      CLOUDY    34  34 100 SE13G20   29.45F WCI  25
GRAND RAPIDS   CLOUDY    33  32  96 SE12G18   29.51F WCI  24
CRANE LAKE     LGT SNOW  30  28  93 CALM      29.62F
ORR            MIX PCPN  30  28  93 SE3       29.55F
COOK           LGT SNOW  34  32  93 E5        29.58F WCI  30
$$
MNZ012-019>021-037-060600-
   Northeast Minnesota

CITY           SKY/WX    TMP DP  RH WIND       PRES   REMARKS
DULUTH         FLURRIES  34  32  92 SE16      29.61F WCI  24
ELY            LGT SNOW  32  30  93 SE9       29.63S WCI  24
HIBBING        MIX PCPN  32  31  96 SE13      29.56F WCI  22
EVELETH        MIX PCPN  35  33  94 SE9       29.60F WCI  27
DULUTH HARBOR  CLOUDY    37  34  87 SE3       29.66F
TWO HARBORS    CLOUDY    37  34  87 SE6       29.64F
SILVER BAY     LGT RAIN  37  36  93 SE6       29.67S
GRAND MARAIS     N/A     36  34  92 NE15G21   29.76R
G MARAIS ARPRT CLOUDY    30  27  86 E8G17     29.71S FOG     WCI  23
$$
MNZ029>031-032-039>041-046>048-054>057-064-060600-
   West Central Minnesota

CITY           SKY/WX    TMP DP  RH WIND       PRES   REMARKS
FERGUS FALLS   CLOUDY    28  27  93 W24G36    29.54R WCI  14
WHEATON        CLOUDY    27  21  80 W29G35    29.61R WCI  11
MORRIS         CLOUDY    28  23  80 W29G38    29.59R WCI  13
ALEXANDRIA     CLOUDY    30  26  85 W24G33    29.55R WCI  16
ELBOW LAKE     CLOUDY    28  25  89 SW30G39   29.55R WCI  12
WADENA         CLOUDY    32  30  93 SW21G30   29.46R WCI  20
GLENWOOD       CLOUDY    28  27  93 W31G38    29.57R WCI  12
APPLETON       CLOUDY    28  21  74 W24G32    29.65R WCI  14
BENSON         CLOUDY    28  21  74 W26G35    29.63R WCI  13
ORTONVILLE     MOCLDY    25  18  74 W30G37    29.63R WCI   8
MADISON        CLOUDY    28  21  74 W25G36    29.68R WCI  14
WILLMAR        CLOUDY    32  28  86 W25G32    29.65R WCI  19
$$
MNZ033>034-036-042>043-049>051-058-059-060600-
   Central Minnesota

CITY           SKY/WX    TMP DP  RH WIND       PRES   REMARKS
ST CLOUD       CLOUDY    35  29  78 SW15G26   29.60R WCI  25
PAYNESVILLE    CLOUDY    33  32  94 SW16G31   29.60R WCI  23
AITKIN         CLOUDY    37  32  81 S12G18    29.50S
PINE RIVER     CLOUDY    36  34  93 S14       29.51R
BRAINERD       CLOUDY    36  31  82 S20G29    29.50S
STAPLES        CLOUDY    34  30  86 SW16G24   29.49R WCI  23
LONG PRAIRIE   CLOUDY    32  30  93 S20       29.53R WCI  20
LITTLE FALLS   CLOUDY    34  30  86 S14G20    29.56R WCI  24
LITCHFIELD     CLOUDY    34  28  80 SW8G21    29.63R WCI  27
BUFFALO        CLOUDY    36  30  79 S14G20    29.64R
MAPLE LAKE     CLOUDY    37  32  83 SW13G21   29.64R
$$
MNZ037-044-045-052-053-060600-
   East Central Minnesota

CITY           SKY/WX    TMP DP  RH WIND       PRES   REMARKS
PRINCETON      CLOUDY    39  32  75 SW14G21   29.61R
MORA           CLOUDY    36  32  87 S15       29.60F
CAMBRIDGE      CLOUDY    39  32  75 S10       29.59F
RUSH CITY      CLOUDY    36  32  87 S13G22    29.62S
MOOSE LAKE     CLOUDY    34  32  93 S5        29.57F WCI  30
HINCKLEY       CLOUDY    36  32  87 S14       29.61S
CLOQUET        CLOUDY    34  30  86 SE7       29.60F WCI  28
MCGREGOR       CLOUDY    36  32  87 SE14G23   29.53F
$$
MNZ071>073-080-081-089-090-097-098-060600-
   Southwest Minnesota

CITY           SKY/WX    TMP DP  RH WIND       PRES   REMARKS
MONTEVIDEO     CLOUDY    28  21  74 NW18G28   29.69R WCI  16
GRANITE FALLS  CLOUDY    31  26  81 W24       29.71R WCI  18
CANBY          MOCLDY    27  21  78 NW28      29.71S WCI  11
MARSHALL       CLOUDY    28  22  78 W29G36    29.68R WCI  12
REDWOOD FALLS  CLOUDY    32  23  69 W22G32    29.69R WCI  19
OLIVIA         CLOUDY    32  28  86 W23G30    29.67R WCI  19
PIPESTONE      CLOUDY    27  21  80 NW22G31   29.71S WCI  12
WINDOM         CLOUDY    30  27  86 W20G25    29.71R WCI  18
WORTHINGTON    CLOUDY    29  24  82 W25       29.73R WCI  14
JACKSON        CLOUDY    32  27  80 W22G30    29.72R WCI  19
TRACY          CLOUDY    30  25  82 W12G21    29.70R WCI  21
SLAYTON        CLOUDY    28  24  83 W23G35    29.70R WCI  14
$$
MNZ065>067-074>077-082>085-091>093-060600-
   South Central Minnesota

CITY           SKY/WX    TMP DP  RH WIND       PRES   REMARKS
MANKATO        CLOUDY    36  30  79 W12       29.69R
NEW ULM        CLOUDY    34  27  75 W20G25    29.71R WCI  22
ST JAMES       CLOUDY    34  28  80 W18G26    29.72R WCI  23
FAIRMONT       CLOUDY    34  28  79 W16       29.73R WCI  24
GLENCOE        CLOUDY    37  33  87 SW14G21   29.66R
FARIBAULT      CLOUDY    39  36  87 S10G16    29.69R
OWATONNA       CLOUDY    36  34  93 S14G23    29.70R
WASECA         CLOUDY    36  32  87 SW16      29.72R
ALBERT LEA     CLOUDY    39  37  93 S10       29.72R
$$
MNZ078>079-086>088-094>096-060600-
   Southeast Minnesota

CITY           SKY/WX    TMP DP  RH WIND       PRES   REMARKS
ROCHESTER      LGT SNOW  33  31  92 S21       29.72F FOG     WCI  21
RED WING       CLOUDY    37  34  87 S12       29.71R
STANTON        CLOUDY    38  33  83 S12G23    29.68R
DODGE CENTER   MIX PCPN  34  32  93 S20       29.70S WCI  22
WINONA         CLOUDY    36  32  87 S9        29.78S
AUSTIN         LGT SNOW  34  30  86 S13       29.73R WCI  25
PRESTON        CLOUDY    32  29  91 S12       29.76S FOG     WCI  23
$$
ABBREVIATIONS USED IN REMARKS
   TC - TEMPERATURES IN CELSIUS
  WCI - WIND CHILL INDEX
   HX - HEAT INDEX
  VSB - VISIBILITY
$$




USA.gov is the U.S. government's official web portal to all federal, state and local government web resources and services.